Location: Warner Observatory
(35.1353°N, 89.5455°W)
Time: 00:23:44
(UTC-05:00)

Amateur Radio Satellites - All Passes

Search period start: 23 April 2017 23:53
Search period end: 24 April 2017 23:53
Location: Warner Observatory, 35.1353°N, 89.5455°W

Satellite Date Start Highest point End Downlink Frequencies (MHz)
Time Altitude Azimuth
BEESAT 3 23 Apr 23:58:48 00:02:48 65° 59° (ENE) 00:06:44 437.485
FO-29 24 Apr 00:02:07 00:06:58 41° 288° (WNW) 00:12:03 435.910
POLYITAN 1 24 Apr 00:07:34 00:11:10 27° 97° (E) 00:14:45 437.675
LO-87 24 Apr 00:11:38 00:14:03 17° 265° (W) 00:16:30 145.935 - 145.965
QB50P2 24 Apr 00:13:46 00:17:39 36° 98° (E) 00:21:31 145.880/145.840
DX 1 24 Apr 00:19:07 00:22:24 21° 68° (ENE) 00:25:40 434.975-435.025
ESTCUBE 1 24 Apr 00:24:40 00:28:39 31° 263° (W) 00:32:41 437.505/2401.250
AIST 2D 24 Apr 00:37:23 00:40:46 46° 285° (WNW) 00:44:09 435.315
NANOSAT C BR1 24 Apr 00:38:50 00:42:59 62° 101° (ESE) 00:47:06 145.865
SPROUT 24 Apr 00:42:44 00:47:00 80° 258° (WSW) 00:51:18 437.525
SRMSAT 24 Apr 00:43:30 00:46:58 16° 188° (S) 00:50:25 437.500
BUGSAT 1 24 Apr 00:50:55 00:53:56 20° 96° (E) 00:56:56 437.445
VELOX 1 24 Apr 00:51:30 00:55:53 58° 259° (W) 01:00:18 145.980
EO-79 24 Apr 01:04:34 01:08:40 56° 285° (WNW) 01:12:46 145.935-145.965
50 SAT 24 Apr 01:05:32 01:08:57 59° 260° (W) 01:12:25 437.505
DUCHIFAT 1 24 Apr 01:10:29 01:14:34 59° 285° (WNW) 01:18:39 145.980
Oscar 19 24 Apr 01:16:28 01:19:17 15° 92° (E) 01:22:06 437.125/150
UKube-1 24 Apr 01:27:33 01:31:53 90° 302° (WNW) 01:36:14 .
BEESAT 2 24 Apr 01:28:05 01:31:40 31° 247° (WSW) 01:35:12 435.950
POLYITAN 1 24 Apr 01:43:41 01:46:45 20° 291° (WNW) 01:49:49 437.675
ITUPSAT 1 24 Apr 01:48:25 01:49:18 10° 63° (ENE) 01:50:12 437.325
QB50P2 24 Apr 01:50:36 01:53:07 16° 292° (WNW) 01:55:38 145.880/145.840
DX 1 24 Apr 01:54:33 01:58:22 29° 263° (W) 02:02:12 434.975-435.025
BUGSAT 1 24 Apr 02:25:59 02:29:13 24° 290° (WNW) 02:32:26 437.445
Gurwin Techsat 1B 24 Apr 02:30:00 02:35:07 47° 100° (E) 02:40:13 435.225
BEESAT 24 Apr 02:43:33 02:48:02 43° 72° (ENE) 02:52:32 436.000
Oscar 19 24 Apr 02:53:48 02:58:53 56° 287° (WNW) 03:03:57 437.125/150
MOZHAYETS 4 24 Apr 03:05:15 03:09:15 32° 71° (ENE) 03:13:17
PCSat 24 Apr 03:15:41 03:21:05 84° 296° (WNW) 03:26:32 145.827
NO-84 24 Apr 03:16:20 03:17:02 11° 34° (NNE) 03:17:44 435.350 FM
ITUPSAT 1 24 Apr 03:21:44 03:26:28 73° 258° (WSW) 03:31:14 437.325
YUBILEINY 24 Apr 03:41:36 03:47:47 22° 82° (E) 03:53:56 435.215
KKS-1 24 Apr 03:42:01 03:44:19 14° 66° (ENE) 03:46:38 437.445
CUBESAT XI-V 24 Apr 03:49:15 03:52:00 16° 66° (ENE) 03:54:45 437.345
Gurwin Techsat 1B 24 Apr 04:11:01 04:14:39 19° 295° (WNW) 04:18:18 435.225
AO-7 24 Apr 04:11:56 04:20:01 53° 103° (ESE) 04:28:05 .
ITAMSAT 1 24 Apr 04:12:39 04:17:49 68° 102° (ESE) 04:22:56 435.822/435.867
STARS 24 Apr 04:22:00 04:24:44 16° 67° (ENE) 04:27:28 437.465
BEESAT 24 Apr 04:23:05 04:25:58 16° 266° (W) 04:28:51 436.000
MOZHAYETS 4 24 Apr 04:43:05 04:46:25 20° 265° (W) 04:49:46
NO-84 24 Apr 04:52:01 04:54:46 48° 230° (SW) 04:57:32 435.350 FM
PCSat 24 Apr 05:03:19 05:05:17 12° 314° (NW) 05:07:16 145.827
KKS-1 24 Apr 05:16:07 05:20:26 47° 260° (W) 05:24:46 437.445
CUBESAT XI-V 24 Apr 05:24:32 05:28:57 44° 261° (W) 05:33:25 437.345
YUBILEINY 24 Apr 05:35:04 05:43:42 67° 279° (W) 05:52:22 435.215
ITAMSAT 1 24 Apr 05:54:20 05:56:38 13° 297° (WNW) 05:58:57 435.822/435.867
STARS 24 Apr 05:56:35 06:00:43 39° 261° (W) 06:04:52 437.465
SO-50 24 Apr 05:59:00 06:00:45 12° 108° (ESE) 06:02:31 436.795
AO-7 24 Apr 06:05:21 06:12:21 32° 299° (WNW) 06:19:23 .
XW-2D 24 Apr 06:17:57 06:20:39 18° 95° (E) 06:23:21 145.860 - 145.880
XW-2B 24 Apr 06:24:34 06:27:32 21° 96° (E) 06:30:31 145.730 - 145.750
M-CUBED/EXP-1 PRIME 24 Apr 06:25:30 06:28:53 21° 63° (ENE) 06:32:20 437.505
STRAND 1 24 Apr 06:26:21 06:29:26 16° 65° (ENE) 06:32:32 437.568
LilacSat-2 24 Apr 06:31:42 06:35:04 28° 97° (E) 06:38:25 437.200
XW-2C 24 Apr 06:35:57 06:39:21 31° 97° (E) 06:42:46 145.795 - 145.815
CUTE-I 24 Apr 06:38:30 06:43:13 32° 97° (E) 06:47:54 437.470
KAITUO 1B 24 Apr 06:41:05 06:44:21 27° 97° (E) 06:47:37 145.475/437.950
DOVE 4 24 Apr 06:48:32 06:53:12 77° 101° (ESE) 06:57:34 437.250
XW-2F 24 Apr 07:03:24 07:07:12 72° 101° (E) 07:11:00 145.980 - 146.000
NUDT-PHONESAT 24 Apr 07:23:59 07:27:42 73° 283° (WNW) 07:31:24 437.300
RS-15 24 Apr 07:24:00 07:35:24 55° 110° (ESE) 07:47:12 29.354- 29.394
SO-50 24 Apr 07:36:07 07:40:41 60° 301° (WNW) 07:45:13 436.795
CUTE 1.7 + AOD 2 24 Apr 07:47:58 07:51:41 28° 97° (E) 07:55:20 437.475
XW-2D 24 Apr 07:51:41 07:54:46 24° 288° (WNW) 07:57:50 145.860 - 145.880
Tancredo 1 24 Apr 07:53:50 07:54:13 10° 126° (SE) 07:54:37 437.200
XW-2B 24 Apr 07:58:44 08:01:35 20° 289° (WNW) 08:04:26 145.730 - 145.750
M-CUBED/EXP-1 PRIME 24 Apr 07:58:49 08:02:59 36° 258° (WSW) 08:07:18 437.505
STRAND 1 24 Apr 08:03:11 08:08:09 52° 260° (W) 08:13:08 437.568
LilacSat-2 24 Apr 08:06:43 08:09:05 16° 291° (WNW) 08:11:27 437.200
XW-2C 24 Apr 08:11:07 08:13:16 15° 291° (WNW) 08:15:25 145.795 - 145.815
SEEDS 24 Apr 08:13:25 08:17:20 35° 97° (E) 08:21:13 437.485
KAITUO 1B 24 Apr 08:15:47 08:18:06 16° 291° (WNW) 08:20:26 145.475/437.950
UWE-3 24 Apr 08:17:14 08:19:38 15° 94° (E) 08:22:02 435.000/436.395/437.385
HO-68 24 Apr 08:17:52 08:25:01 62° 102° (ESE) 08:32:06 435.675
CUTE-I 24 Apr 08:18:40 08:23:06 27° 292° (WNW) 08:27:29 437.470
XW-2A 24 Apr 08:19:38 08:22:59 79° 101° (E) 08:26:20 145.665 - 145.685
CUBEBUG 2 24 Apr 08:23:10 08:26:51 30° 98° (E) 08:30:33 437.445
PRISM 24 Apr 08:55:50 08:58:15 15° 67° (ENE) 09:00:40 437.425
ZACube-1 24 Apr 09:17:51 09:21:53 44° 99° (E) 09:25:59 437.345
CUTE 1.7 + AOD 2 24 Apr 09:24:06 09:27:18 21° 290° (WNW) 09:30:30 437.475
AO-73 24 Apr 09:26:23 09:30:30 51° 100° (E) 09:34:40 145.935
Tancredo 1 24 Apr 09:26:44 09:29:45 52° 320° (NW) 09:32:48 437.200
ISS 24 Apr 09:26:57 09:30:12 74° 318° (NW) 09:33:27 437.550
AAUSAT CUBESAT 2 24 Apr 09:29:48 09:33:55 57° 285° (WNW) 09:38:01 437.432
RS-15 24 Apr 09:36:48 09:48:09 45° 311° (NW) 09:59:52 29.354- 29.394
Oscar 11 24 Apr 09:45:26 09:49:47 72° 102° (ESE) 09:54:07 .
SEEDS 24 Apr 09:50:00 09:52:42 17° 292° (WNW) 09:55:24 437.485
TIGRISAT 24 Apr 09:50:29 09:54:32 36° 73° (ENE) 09:58:31 435.000
UWE-3 24 Apr 09:52:20 09:56:10 36° 287° (WNW) 10:00:03 435.000/436.395/437.385
CUBEBUG 2 24 Apr 10:00:26 10:03:14 18° 291° (WNW) 10:06:04 437.445
HO-68 24 Apr 10:06:46 10:12:08 23° 299° (WNW) 10:17:30 435.675
FO-29 24 Apr 10:09:49 10:16:16 55° 73° (ENE) 10:21:59 435.910
UNISAT 6 24 Apr 10:10:26 10:14:51 69° 76° (ENE) 10:19:11 437.425
OBJECT BX 24 Apr 10:27:27 10:30:57 42° 99° (E) 10:34:26 145.990 - 145.960
PRISM 24 Apr 10:29:21 10:33:11 36° 261° (W) 10:37:03 437.425
O/OREOS (USA 219) 24 Apr 10:32:20 10:36:32 37° 104° (ESE) 10:40:46 437.305
DELFI C3 24 Apr 10:39:03 10:43:04 87° 102° (ESE) 10:47:03 145.870
ZACube-1 24 Apr 10:55:49 10:57:46 13° 293° (WNW) 10:59:44 437.345
POLYITAN 1 24 Apr 10:58:08 11:00:29 15° 67° (ENE) 11:02:48 437.675
QB50P2 24 Apr 11:03:54 11:06:50 19° 69° (ENE) 11:09:48 145.880/145.840
AO-73 24 Apr 11:04:52 11:06:16 11° 293° (WNW) 11:07:42 145.935
ISS 24 Apr 11:06:08 11:07:09 11° 335° (NNW) 11:08:10 437.550
AIST 2D 24 Apr 11:08:36 11:11:41 31° 74° (ENE) 11:14:48 435.315
NANOSAT C BR1 24 Apr 11:27:49 11:31:28 29° 72° (ENE) 11:35:06 145.865
TIGRISAT 24 Apr 11:28:28 11:31:17 16° 266° (W) 11:34:03 435.000
BUGSAT 1 24 Apr 11:39:52 11:40:33 10° 66° (ENE) 11:41:15 437.445
LO-87 24 Apr 11:40:29 11:43:54 43° 99° (E) 11:47:18 145.935 - 145.965
EO-79 24 Apr 11:53:13 11:57:24 67° 76° (ENE) 12:01:36 145.935-145.965
FO-29 24 Apr 11:56:50 12:01:25 20° 264° (W) 12:05:42 435.910
RS-15 24 Apr 11:58:12 12:05:16 16° 342° (NNW) 12:12:21 29.354- 29.394
DUCHIFAT 1 24 Apr 11:58:33 12:02:41 62° 76° (ENE) 12:06:50 145.980
PCSat 24 Apr 12:06:58 12:12:02 39° 58° (ENE) 12:17:04 145.827
O/OREOS (USA 219) 24 Apr 12:12:51 12:16:03 18° 300° (WNW) 12:19:16 437.305
ESTCUBE 1 24 Apr 12:19:34 12:24:06 68° 101° (E) 12:28:37 437.505/2401.250
Oscar 19 24 Apr 12:30:22 12:33:32 17° 65° (ENE) 12:36:41 437.125/150
POLYITAN 1 24 Apr 12:31:56 12:35:54 39° 261° (W) 12:39:52 437.675
SPROUT 24 Apr 12:32:18 12:35:32 21° 95° (E) 12:38:45 437.525
50 SAT 24 Apr 12:34:54 12:35:15 10° 93° (E) 12:35:37 437.505
QB50P2 24 Apr 12:38:39 12:42:23 30° 263° (W) 12:46:08 145.880/145.840
AIST 2D 24 Apr 12:44:01 12:44:59 11° 267° (W) 12:45:57 435.315
VELOX 1 24 Apr 12:44:53 12:48:52 32° 98° (E) 12:52:48 145.980
NANOSAT C BR1 24 Apr 13:04:11 13:07:10 19° 265° (W) 13:10:09 145.865
BUGSAT 1 24 Apr 13:11:18 13:15:25 56° 260° (W) 13:19:29 437.445
AO-85 24 Apr 13:16:16 13:20:40 77° 117° (ESE) 13:24:47 145.980
UKube-1 24 Apr 13:18:40 13:21:42 19° 95° (E) 13:24:44 .
DX 1 24 Apr 13:45:09 13:49:28 59° 101° (E) 13:53:44 434.975-435.025
BEESAT 3 24 Apr 13:46:06 13:49:11 23° 111° (ESE) 13:52:20 437.485
Gurwin Techsat 1B 24 Apr 13:47:47 13:52:57 55° 73° (ENE) 13:58:09 435.225
PCSat 24 Apr 13:50:52 13:55:09 24° 253° (WSW) 13:59:26 145.827
ESTCUBE 1 24 Apr 13:59:41 14:00:16 10° 296° (WNW) 14:00:52 437.505/2401.250
50 SAT 24 Apr 14:05:07 14:08:18 34° 287° (WNW) 14:11:28 437.505
Oscar 19 24 Apr 14:07:21 14:12:21 53° 260° (W) 14:17:25 437.125/150
SPROUT 24 Apr 14:07:51 14:11:22 26° 289° (WNW) 14:14:54 437.525
RS-15 24 Apr 14:17:48 14:25:16 17° 21° (NNE) 14:32:36 29.354- 29.394
VELOX 1 24 Apr 14:21:55 14:25:03 19° 292° (WNW) 14:28:11 145.980
BEESAT 24 Apr 14:48:16 14:50:47 14° 93° (E) 14:53:17 436.000
UKube-1 24 Apr 14:53:57 14:57:44 31° 289° (WNW) 15:01:32 .
AO-85 24 Apr 15:01:20 15:01:27 10° 313° (NW) 15:01:36 145.980
AO-7 24 Apr 15:07:14 15:15:14 55° 67° (ENE) 15:23:14 .
BEESAT 2 24 Apr 15:15:34 15:19:29 84° 299° (WNW) 15:23:30 435.950
BEESAT 3 24 Apr 15:23:23 15:26:39 25° 307° (NW) 15:29:57 437.485
DX 1 24 Apr 15:23:56 15:25:05 11° 296° (WNW) 15:26:13 434.975-435.025
ITUPSAT 1 24 Apr 15:25:32 15:29:56 36° 98° (E) 15:34:19 437.325
ITAMSAT 1 24 Apr 15:27:17 15:32:28 76° 75° (ENE) 15:37:40 435.822/435.867
Gurwin Techsat 1B 24 Apr 15:30:09 15:33:11 15° 267° (W) 15:36:14 435.225
YUBILEINY 24 Apr 15:49:09 15:57:42 54° 79° (E) 16:06:14 435.215
Tancredo 1 24 Apr 15:54:56 15:57:47 33° 37° (NE) 16:00:38 437.200
ISS 24 Apr 15:57:33 16:00:26 28° 35° (NE) 16:03:18 437.550
SO-50 24 Apr 16:10:24 16:14:45 47° 57° (ENE) 16:19:06 436.795
BEESAT 24 Apr 16:24:11 16:28:46 49° 287° (WNW) 16:33:21 436.000
RS-15 24 Apr 16:30:09 16:41:56 50° 51° (NE) 16:53:07 29.354- 29.394
MOZHAYETS 4 24 Apr 16:39:38 16:44:13 69° 284° (WNW) 16:48:49
AO-7 24 Apr 17:01:21 17:08:14 29° 263° (W) 17:15:09 .
ITUPSAT 1 24 Apr 17:04:01 17:07:28 20° 293° (WNW) 17:10:56 437.325
KKS-1 24 Apr 17:10:09 17:14:19 39° 99° (E) 17:18:26 437.445
ITAMSAT 1 24 Apr 17:11:44 17:12:24 10° 269° (W) 17:13:02 435.822/435.867
CUBESAT XI-V 24 Apr 17:23:54 17:28:33 57° 100° (E) 17:33:10 437.345
Tancredo 1 24 Apr 17:31:26 17:33:31 17° 231° (SW) 17:35:35 437.200
ISS 24 Apr 17:34:12 17:36:47 22° 230° (SW) 17:39:24 437.550
XW-2F 24 Apr 17:41:52 17:44:39 20° 71° (ENE) 17:47:26 145.980 - 146.000
YUBILEINY 24 Apr 17:46:51 17:53:56 29° 276° (W) 18:01:03 435.215
JUGNU 24 Apr 17:48:32 17:50:40 12° 166° (SSE) 17:52:46 437.505
STARS 24 Apr 17:48:47 17:52:58 45° 100° (E) 17:57:07 437.465
DOVE 4 24 Apr 17:49:19 17:54:28 55° 74° (ENE) 17:59:37 437.250
SO-50 24 Apr 17:52:17 17:54:46 15° 251° (WSW) 17:57:15 436.795
CUTE-I 24 Apr 17:57:03 18:01:59 39° 71° (ENE) 18:06:54 437.470
NUDT-PHONESAT 24 Apr 18:00:23 18:03:32 28° 73° (ENE) 18:06:41 437.300
XW-2D 24 Apr 18:28:48 18:32:31 82° 257° (WSW) 18:36:16 145.860 - 145.880
XW-2B 24 Apr 18:35:41 18:39:24 68° 259° (W) 18:43:07 145.730 - 145.750
CUTE 1.7 + AOD 2 24 Apr 18:38:55 18:41:00 14° 67° (ENE) 18:43:05 437.475
RS-15 24 Apr 18:43:02 18:54:16 47° 252° (WSW) 19:05:01 29.354- 29.394
HO-68 24 Apr 18:43:29 18:49:40 33° 65° (ENE) 18:55:52 435.675
LilacSat-2 24 Apr 18:43:57 18:47:35 48° 261° (W) 18:51:14 437.200
XW-2C 24 Apr 18:47:38 18:51:13 45° 261° (W) 18:54:49 145.795 - 145.815
KKS-1 24 Apr 18:47:47 18:50:30 16° 293° (WNW) 18:53:13 437.445
XW-2A 24 Apr 18:49:06 18:51:02 15° 70° (ENE) 18:52:58 145.665 - 145.685
KAITUO 1B 24 Apr 18:51:10 18:54:45 52° 260° (W) 18:58:23 145.475/437.950
SEEDS 24 Apr 19:02:55 19:05:32 16° 68° (ENE) 19:08:10 437.485
CUBESAT XI-V 24 Apr 19:03:13 19:05:23 13° 295° (WNW) 19:07:31 437.345
XW-2F 24 Apr 19:15:51 19:18:39 20° 265° (W) 19:21:29 145.980 - 146.000
CUBEBUG 2 24 Apr 19:18:45 19:21:47 19° 69° (ENE) 19:24:47 437.445
STARS 24 Apr 19:26:38 19:28:52 14° 294° (WNW) 19:31:07 437.465
DOVE 4 24 Apr 19:29:15 19:32:22 16° 268° (W) 19:35:31 437.250
JUGNU 24 Apr 19:35:06 19:38:55 18° 176° (S) 19:42:44 437.505
NUDT-PHONESAT 24 Apr 19:35:28 19:37:27 14° 266° (W) 19:39:27 437.300
CUTE-I 24 Apr 19:37:58 19:42:05 22° 265° (W) 19:46:12 437.470
M-CUBED/EXP-1 PRIME 24 Apr 19:41:41 19:44:44 20° 98° (E) 19:47:36 437.505
NO-84 24 Apr 20:06:10 20:09:56 72° 131° (SE) 20:13:22 435.350 FM
ZACube-1 24 Apr 20:11:00 20:14:20 23° 71° (ENE) 20:17:39 437.345
CUTE 1.7 + AOD 2 24 Apr 20:12:26 20:16:25 42° 261° (W) 20:20:26 437.475
AAUSAT CUBESAT 2 24 Apr 20:16:12 20:20:14 56° 76° (ENE) 20:24:19 437.432
STRAND 1 24 Apr 20:16:41 20:21:46 69° 102° (ESE) 20:26:51 437.568
AO-73 24 Apr 20:19:07 20:22:35 26° 72° (ENE) 20:26:02 145.935
XW-2A 24 Apr 20:20:52 20:23:34 22° 263° (W) 20:26:16 145.665 - 145.685
HO-68 24 Apr 20:30:29 20:37:09 42° 261° (W) 20:43:52 435.675
Oscar 11 24 Apr 20:37:00 20:40:54 35° 73° (ENE) 20:44:50 .
SEEDS 24 Apr 20:37:07 20:40:54 34° 263° (W) 20:44:44 437.485
O/OREOS (USA 219) 24 Apr 20:45:20 20:49:42 42° 66° (ENE) 20:54:00 437.305
UWE-3 24 Apr 20:45:26 20:49:45 71° 259° (W) 20:53:58 435.000/436.395/437.385
SRMSAT 24 Apr 20:54:06 20:57:05 14° 169° (S) 21:00:04 437.500
CUBEBUG 2 24 Apr 20:54:11 20:58:10 32° 262° (W) 21:02:04 437.445
OBJECT BX 24 Apr 21:04:04 21:05:29 12° 68° (ENE) 21:06:54 145.990 - 145.960
M-CUBED/EXP-1 PRIME 24 Apr 21:15:37 21:19:08 27° 295° (WNW) 21:22:27 437.505
DELFI C3 24 Apr 21:21:21 21:24:49 30° 72° (ENE) 21:28:18 145.870
JUGNU 24 Apr 21:23:36 21:27:12 16° 187° (S) 21:30:49 437.505
NO-84 24 Apr 21:46:14 21:47:44 12° 325° (NW) 21:49:11 435.350 FM
ZACube-1 24 Apr 21:47:07 21:50:30 23° 264° (W) 21:53:53 437.345
AO-85 24 Apr 21:50:41 21:53:58 24° 54° (NE) 21:57:20 145.980
AO-73 24 Apr 21:55:35 21:58:45 21° 265° (W) 22:01:55 145.935
STRAND 1 24 Apr 21:58:15 22:00:19 12° 297° (WNW) 22:02:22 437.568
UNISAT 6 24 Apr 22:06:10 22:09:02 17° 94° (E) 22:11:55 437.425
PRISM 24 Apr 22:13:38 22:17:28 35° 99° (E) 22:21:14 437.425
Oscar 11 24 Apr 22:14:28 22:17:07 16° 266° (W) 22:19:46 .
LO-87 24 Apr 22:15:23 22:16:43 12° 68° (ENE) 22:18:04 145.935 - 145.965
O/OREOS (USA 219) 24 Apr 22:26:07 22:28:39 15° 261° (W) 22:31:12 437.305
OBJECT BX 24 Apr 22:35:29 22:38:49 34° 262° (W) 22:42:09 145.990 - 145.960
SRMSAT 24 Apr 22:41:35 22:45:31 18° 179° (S) 22:49:27 437.500
DELFI C3 24 Apr 22:57:07 22:59:36 16° 266° (W) 23:02:08 145.870
FO-29 24 Apr 23:06:47 23:11:57 60° 101° (ESE) 23:17:27 435.910
ESTCUBE 1 24 Apr 23:15:46 23:19:58 41° 73° (ENE) 23:24:13 437.505/2401.250
TIGRISAT 24 Apr 23:21:02 23:25:15 63° 285° (WNW) 23:29:32 435.000
SPROUT 24 Apr 23:24:21 23:25:47 11° 66° (ENE) 23:27:13 437.525
AO-85 24 Apr 23:30:56 23:34:15 25° 247° (WSW) 23:37:43 145.980
BEESAT 2 24 Apr 23:36:43 23:39:52 21° 52° (NE) 23:42:59 435.950
VELOX 1 24 Apr 23:39:27 23:42:43 20° 68° (ENE) 23:45:59 145.980
UNISAT 6 24 Apr 23:41:57 23:45:46 32° 288° (WNW) 23:49:37 437.425
BEESAT 3 24 Apr 23:42:11 23:46:11 65° 60° (ENE) 23:50:07 437.485
EO-79 24 Apr 23:42:38 23:44:44 13° 93° (E) 23:46:49 145.935-145.965
LO-87 24 Apr 23:46:26 23:49:47 35° 262° (W) 23:53:10 145.935 - 145.965
DUCHIFAT 1 24 Apr 23:47:36 23:49:18 12° 93° (E) 23:51:00 145.980
